Location: Bovenkerk
(52.2915°N, 4.8336°E)
Time: 01:50:18
(UTC+00:00)

N. Korean satellite - Pass Details

Date: 08 March 2021
Orbit: 453 x 499 km, 97.2° (Epoch: 11 April)

Event Time Altitude Azimuth Distance (km) Brightness Sun altitude
Rises 04:42:06 0° 20° (NNE) 2,537 10.7 -14.4°
Reaches altitude 10° 04:44:17 10° 30° (NNE) 1,662 9.8 -14.0°
Maximum altitude 04:47:35 35° 97° (E) 807 8.4 -13.5°
Drops below altitude 10° 04:50:55 10° 164° (SSE) 1,673 9.4 -13.0°
Sets 04:53:07 0° 174° (S) 2,556 10.2 -12.7°
